Location: Prague
(50.0830°N, 14.4670°E)
Time: 23:07:21
(UTC+01:00)

ITAMSAT 1 - Visible Passes

Search period start: 05 December 2021 00:00
Search period end: 15 December 2021 00:00
Orbit: 784 x 796 km, 98.9° (Epoch: 05 December)

Date Brightness Start Highest point End Pass type
(mag) Time Alt. Az. Time Alt. Az. Time Alt. Az.
05 Dec 9.3 07:01:41 10° NNE 07:06:37 40° E 07:11:29 10° SSE visible
05 Dec 9.0 16:46:54 10° E 16:50:27 19° NE 16:54:00 10° NNE visible
05 Dec 7.6 18:24:01 10° SSE 18:29:16 85° WSW 18:34:33 10° NNW visible
05 Dec 10.5 20:06:52 10° WSW 20:09:30 14° W 20:12:10 10° NW visible
06 Dec 10.2 06:32:41 10° NE 06:36:51 24° E 06:40:58 10° SE visible
06 Dec 7.7 17:54:41 10° SE 17:59:48 57° ENE 18:04:57 10° N visible
06 Dec 9.8 19:35:25 10° SW 19:39:36 24° W 19:43:50 10° NW visible
07 Dec 10.7 06:04:24 10° ENE 06:06:57 13° E 06:09:28 10° ESE visible
07 Dec 8.2 17:25:47 10° SE 17:30:28 35° ENE 17:35:11 10° N visible
07 Dec 8.9 19:04:56 10° SSW 19:09:51 41° W 19:14:49 10° NNW visible
08 Dec 8.8 16:57:20 10° ESE 17:01:16 22° ENE 17:05:12 10° N visible
08 Dec 7.9 18:35:01 10° S 18:40:13 71° WSW 18:45:29 10° NNW visible
08 Dec 10.7 20:19:08 10° W 20:20:38 11° W 20:22:07 10° WNW visible
09 Dec 9.9 06:43:25 10° NE 06:47:55 28° E 06:52:22 10° SSE visible
09 Dec 7.6 18:05:32 10° SSE 18:10:43 69° ENE 18:15:57 10° N visible
09 Dec 10.1 19:46:54 10° SW 19:50:41 20° W 19:54:29 10° NW visible
10 Dec 10.5 06:14:47 10° NE 06:18:04 17° E 06:21:18 10° SE visible
10 Dec 8.0 17:36:28 10° SE 17:41:21 41° ENE 17:46:15 10° N visible
10 Dec 9.2 19:16:09 10° SSW 19:20:53 34° W 19:25:38 10° NNW visible
11 Dec 8.6 17:07:52 10° ESE 17:12:06 26° ENE 17:16:21 10° N visible
11 Dec 8.2 18:46:03 10° S 18:51:12 58° WSW 18:56:24 10° NNW visible
12 Dec 9.6 06:54:11 10° NNE 06:58:56 34° E 07:03:39 10° SSE visible
12 Dec 9.1 16:39:47 10° E 16:42:58 17° NE 16:46:09 10° NNE visible
12 Dec 7.5 18:16:25 10° SSE 18:21:40 83° ENE 18:26:56 10° NNW visible
12 Dec 10.3 19:58:32 10° SW 20:01:46 16° W 20:05:02 10° NW visible
13 Dec 10.4 06:25:20 10° NE 06:29:09 20° E 06:32:55 10° SE visible
13 Dec 7.8 17:47:13 10° SE 17:52:14 49° ENE 17:57:17 10° N visible
13 Dec 9.5 19:27:27 10° SSW 19:31:55 28° W 19:36:24 10° NW visible
14 Dec 10.9 05:57:39 10° ENE 05:59:11 11° E 06:00:43 10° ESE visible
14 Dec 8.4 17:18:26 10° ESE 17:22:57 30° ENE 17:27:28 10° N visible
14 Dec 8.6 18:57:09 10° S 19:02:12 48° W 19:07:17 10° NNW visible
